Weather History for Lexington, KY

Change the Weather History Date:

Thursday, October 7, 2010

  Actual Average Record
Temperature  
Mean Temperature 65 °F 60 °F  
Max Temperature 79 °F 71 °F 92 °F (1941)
Min Temperature 51 °F 49 °F 28 °F (1952)
Degree Days  
Heating Degree Days 0 6  
Month to date heating degree days 60 39  
Since 1 July heating degree days 89 93  
Cooling Degree Days 0 1  
Month to date cooling degree days 0 11  
Year to date cooling degree days 1565 1174  
Growing Degree Days 14 (Base 50)    
Moisture  
Dew Point 40 °F    
Average Humidity 46    
Maximum Humidity 66    
Minimum Humidity 26    
Precipitation  
Precipitation 0.00 in 0.10 in 1.93 in (1898)
Month to date precipitation 0.03 0.69  
Year to date precipitation 29.88 35.27  
Snow  
Snow 0.00 in 0.00 in 0.00 in ()
Month to date snowfall 0.0 0.0  
Since 1 July snowfall 0.0 0.0  
Since 1 September snowfall 0.0 0.0  
Snow Depth 0.00 in    
Sea Level Pressure  
Sea Level Pressure 30.06 in    
Wind  
Wind Speed 5 mph (WSW)    
Max Wind Speed 13 mph    
Max Gust Speed 17 mph    
Visibility 10 miles    
Events      
T = Trace of Precipitation, MM = Missing Value Source: NWS Daily Summary

Daily Weather History Graph

Daily Weather History Graph

Search for Another Location

Airport:

Trip Planner

Search our weather history database for the weather conditions in past years. The results will help you decide how hot, cold, wet, or windy it might be!

Date:

Astronomy

Oct. 07, 2010 Rise Set
Actual Time 7:39 AM EDT 7:12 PM EDT
Civil Twilight 7:13 AM EDT 7:38 PM EDT
Nautical Twilight 6:42 AM EDT 8:09 PM EDT
Astronomical Twilight 6:12 AM EDT 8:39 PM EDT
Moon 7:28 AM EDT (10/7) 6:50 PM EDT (10/7)
Length of Visible Light 12h 25m
Length of Day
11h 32m
Waning Crescent, 0% of the Moon is Illuminated
Oct 7
Waning Crescent
Oct 7
New
Oct 14
First Quarter
Oct 22
Full
Oct 30
Last Quarter

Hourly Weather History & Observations

Time (EDT) Temp. Dew Point Humidity Pressure Visibility Wind Dir Wind Speed Gust Speed Precip Events Conditions
12:54 AM 52.0 °F 35.1 °F 53% 30.04 in 10.0 mi SSW 6.9 mph - N/A   Clear
1:54 AM 51.1 °F 35.1 °F 54% 30.04 in 10.0 mi SSW 6.9 mph - N/A   Clear
2:54 AM 52.0 °F 35.1 °F 53% 30.03 in 10.0 mi SSW 9.2 mph - N/A   Clear
3:54 AM 53.1 °F 35.1 °F 50% 30.02 in 10.0 mi SW 8.1 mph - N/A   Clear
4:54 AM 52.0 °F 36.0 °F 54% 30.01 in 10.0 mi SW 8.1 mph - N/A   Clear
5:54 AM 52.0 °F 37.0 °F 57% 30.02 in 10.0 mi SW 5.8 mph - N/A   Clear
6:54 AM 51.1 °F 37.9 °F 61% 30.04 in 10.0 mi SSW 4.6 mph - N/A   Clear
7:54 AM 52.0 °F 37.9 °F 59% 30.05 in 10.0 mi SW 4.6 mph - N/A   Clear
8:54 AM 55.9 °F 39.9 °F 55% 30.06 in 10.0 mi WSW 4.6 mph - N/A   Clear
9:54 AM 62.1 °F 43.0 °F 50% 30.08 in 10.0 mi West 6.9 mph - N/A   Clear
10:54 AM 66.0 °F 44.1 °F 45% 30.09 in 10.0 mi Variable 3.5 mph - N/A   Clear
11:54 AM 70.0 °F 43.0 °F 38% 30.11 in 10.0 mi ENE 5.8 mph - N/A   Clear
12:54 PM 75.0 °F 44.1 °F 33% 30.10 in 10.0 mi Variable 3.5 mph - N/A   Clear
1:54 PM 73.9 °F 44.1 °F 34% 30.07 in 10.0 mi WSW 6.9 mph - N/A   Clear
2:54 PM 75.9 °F 44.1 °F 32% 30.06 in 10.0 mi West 11.5 mph - N/A   Clear
3:54 PM 78.1 °F 41.0 °F 27% 30.05 in 10.0 mi NW 5.8 mph - N/A   Clear
4:54 PM 77.0 °F 39.9 °F 26% 30.04 in 10.0 mi WNW 8.1 mph - N/A   Clear
5:54 PM 77.0 °F 39.0 °F 25% 30.04 in 10.0 mi NNW 9.2 mph - N/A   Clear
6:54 PM 73.0 °F 41.0 °F 31% 30.05 in 10.0 mi NNW 4.6 mph - N/A   Clear
7:54 PM 70.0 °F 42.1 °F 36% 30.06 in 10.0 mi NW 3.5 mph - N/A   Clear
8:54 PM 64.9 °F 42.1 °F 43% 30.07 in 10.0 mi NW 3.5 mph - N/A   Clear
9:54 PM 64.0 °F 42.1 °F 45% 30.08 in 10.0 mi Calm Calm - N/A   Clear
10:54 PM 63.0 °F 41.0 °F 45% 30.09 in 10.0 mi Calm Calm - N/A   Clear
11:54 PM 54.0 °F 42.1 °F 64% 30.09 in 10.0 mi Calm Calm - N/A   Clear